| time (UTC) | temp C | wind direction | speed KPH | gust KPH | rain 1hr cm | rain 24hr cm | rain mn cm | humidity % | barometer mb |
| 20260906073036 | 15 | 204 | 0.0 | 0.0 | 0.00 | 0.00 | 0.00 | 80 | 1027.0 |
| 20260906071533 | 13 | 203 | 0.0 | 0.0 | 0.00 | 0.00 | 0.00 | 81 | 1026.9 |
| 20260906070027 | 12 | 201 | 0.0 | 0.0 | 0.00 | 0.00 | 0.00 | 80 | 1026.9 |
| 20260906064524 | 12 | 214 | 0.0 | 0.0 | 0.00 | 0.00 | 0.00 | 79 | 1026.9 |
| 20260906063018 | 11 | 214 | 0.0 | 0.0 | 0.00 | 0.00 | 0.00 | 78 | 1026.8 |
| 20260906061514 | 11 | 214 | 0.0 | 0.0 | 0.00 | 0.00 | 0.00 | 77 | 1026.7 |
| 20260906060016 | 10 | 214 | 0.0 | 0.0 | 0.00 | 0.00 | 0.00 | 78 | 1026.6 |
| 20260906054505 | 9 | 214 | 0.0 | 0.0 | 0.00 | 0.00 | 0.00 | 78 | 1026.8 |
| 20260906053006 | 9 | 214 | 0.0 | 0.0 | 0.00 | 0.00 | 0.00 | 78 | 1026.9 |
| 20260906051504 | 9 | 214 | 0.0 | 0.0 | 0.00 | 0.00 | 0.00 | 78 | 1027.1 |
| 20260906050006 | 9 | 214 | 0.0 | 0.0 | 0.00 | 0.00 | 0.00 | 78 | 1027.0 |
| 20260906044600 | 9 | 214 | 0.0 | 0.0 | 0.00 | 0.00 | 0.00 | 78 | 1027.0 |
| 20260906043100 | 9 | 214 | 0.0 | 0.0 | 0.00 | 0.00 | 0.00 | 78 | 1026.7 |
| 20260906041559 | 9 | 214 | 0.0 | 0.0 | 0.00 | 0.00 | 0.00 | 78 | 1026.7 |
| 20260906040059 | 9 | 214 | 0.0 | 0.0 | 0.00 | 0.00 | 0.00 | 78 | 1026.8 |
| 20260906034558 | 9 | 215 | 0.0 | 0.0 | 0.00 | 0.00 | 0.00 | 78 | 1026.9 |
| 20260906033058 | 9 | 215 | 0.0 | 0.0 | 0.00 | 0.00 | 0.00 | 78 | 1027.1 |
| 20260906031602 | 9 | 215 | 0.0 | 0.0 | 0.00 | 0.00 | 0.00 | 78 | 1027.0 |
| 20260906030055 | 9 | 215 | 0.0 | 0.0 | 0.00 | 0.00 | 0.00 | 78 | 1026.7 |
| 20260906024553 | 10 | 215 | 0.0 | 0.0 | 0.00 | 0.00 | 0.00 | 79 | 1026.8 |
| 20260906023052 | 10 | 215 | 0.0 | 0.0 | 0.00 | 0.00 | 0.00 | 79 | 1026.7 |
| 20260906021551 | 10 | 215 | 0.0 | 0.0 | 0.00 | 0.00 | 0.00 | 79 | 1026.6 |
| 20260906020057 | 10 | 215 | 0.0 | 0.0 | 0.00 | 0.00 | 0.00 | 79 | 1026.8 |
| 20260906014548 | 10 | 215 | 0.0 | 0.0 | 0.00 | 0.00 | 0.00 | 79 | 1026.7 |
| 20260906013046 | 10 | 215 | 0.0 | 0.0 | 0.00 | 0.00 | 0.00 | 79 | 1026.6 |
| 20260906011545 | 10 | 215 | 0.0 | 0.0 | 0.00 | 0.00 | 0.00 | 79 | 1026.4 |
| 20260906010044 | 10 | 215 | 0.0 | 0.0 | 0.00 | 0.00 | 0.00 | 79 | 1026.3 |
| 20260906004542 | 10 | 215 | 0.0 | 0.0 | 0.00 | 0.00 | 0.00 | 80 | 1026.5 |
| 20260906003042 | 11 | 215 | 0.0 | 0.0 | 0.00 | 0.00 | 0.00 | 79 | 1026.4 |
| 20260906001539 | 11 | 215 | 0.0 | 0.0 | 0.00 | 0.00 | 0.00 | 80 | 1026.4 |
| 20260906000039 | 11 | 215 | 0.0 | 0.0 | 0.00 | 0.00 | 0.00 | 80 | 1026.6 |
| 20260905234537 | 11 | 215 | 0.0 | 0.0 | 0.00 | 0.00 | 0.00 | 80 | 1026.5 |
| 20260905233042 | 11 | 215 | 0.0 | 0.0 | 0.00 | 0.00 | 0.00 | 80 | 1026.5 |
| 20260905231533 | 11 | 215 | 0.0 | 0.0 | 0.00 | 0.00 | 0.00 | 80 | 1026.6 |
| 20260905230031 | 12 | 215 | 0.0 | 0.0 | 0.00 | 0.00 | 0.00 | 80 | 1026.4 |
| 20260905224538 | 12 | 215 | 0.0 | 0.0 | 0.00 | 0.00 | 0.00 | 81 | 1026.3 |
| 20260905223026 | 12 | 215 | 0.0 | 0.0 | 0.00 | 0.00 | 0.00 | 81 | 1026.2 |
| 20260905221523 | 12 | 215 | 0.0 | 0.0 | 0.00 | 0.00 | 0.00 | 81 | 1026.0 |
| 20260905220021 | 13 | 215 | 0.0 | 0.0 | 0.00 | 0.00 | 0.00 | 81 | 1026.0 |
| 20260905214518 | 13 | 215 | 0.0 | 0.0 | 0.00 | 0.00 | 0.00 | 81 | 1025.8 |
| 20260905213017 | 13 | 215 | 0.0 | 0.0 | 0.00 | 0.00 | 0.00 | 81 | 1025.7 |
| 20260905211515 | 14 | 215 | 0.0 | 0.0 | 0.00 | 0.00 | 0.00 | 80 | 1025.6 |
| 20260905210014 | 15 | 215 | 0.0 | 0.0 | 0.00 | 0.00 | 0.00 | 78 | 1025.5 |
| 20260905204517 | 15 | 215 | 0.0 | 0.0 | 0.00 | 0.00 | 0.00 | 74 | 1025.4 |
| 20260905203012 | 15 | 215 | 0.0 | 0.0 | 0.00 | 0.00 | 0.00 | 73 | 1025.3 |
| 20260905201510 | 16 | 215 | 0.0 | 0.0 | 0.00 | 0.00 | 0.00 | 72 | 1025.2 |
| 20260905200009 | 16 | 215 | 0.0 | 0.0 | 0.00 | 0.00 | 0.00 | 71 | 1025.0 |
| 20260905194508 | 16 | 215 | 0.0 | 0.0 | 0.00 | 0.00 | 0.00 | 70 | 1025.0 |
| 20260905193009 | 17 | 215 | 0.0 | 0.0 | 0.00 | 0.00 | 0.00 | 69 | 1024.9 |
| 20260905191504 | 17 | 215 | 0.0 | 0.0 | 0.00 | 0.00 | 0.00 | 68 | 1024.8 |
| 20260905190003 | 17 | 213 | 0.0 | 0.0 | 0.00 | 0.00 | 0.00 | 67 | 1024.6 |
| 20260905184502 | 17 | 216 | 0.0 | 0.0 | 0.00 | 0.00 | 0.00 | 65 | 1024.6 |
| 20260905183101 | 18 | 215 | 0.0 | 0.0 | 0.00 | 0.00 | 0.00 | 63 | 1024.4 |
| 20260905181609 | 18 | 211 | 0.0 | 16.1 | 0.00 | 0.00 | 0.00 | 62 | 1024.1 |
| 20260905180056 | 18 | 196 | 0.0 | 0.0 | 0.00 | 0.20 | 0.00 | 61 | 1023.9 |
| 20260905174555 | 19 | 227 | 0.0 | 0.0 | 0.00 | 0.20 | 0.00 | 60 | 1023.9 |
| 20260905173056 | 20 | 227 | 0.0 | 0.0 | 0.00 | 0.20 | 0.00 | 59 | 1023.6 |
| 20260905171552 | 20 | 247 | 0.0 | 0.0 | 0.00 | 0.20 | 0.00 | 59 | 1023.5 |
| 20260905170053 | 20 | 265 | 0.0 | 11.3 | 0.00 | 0.61 | 0.00 | 57 | 1023.3 |
| 20260905164547 | 21 | 234 | 0.0 | 20.9 | 0.00 | 0.61 | 0.00 | 54 | 1023.2 |
| 20260905163047 | 21 | 211 | 1.6 | 16.1 | 0.00 | 0.61 | 0.00 | 54 | 1023.0 |
| 20260905161543 | 21 | 198 | 0.0 | 1.6 | 0.00 | 0.61 | 0.00 | 55 | 1022.9 |
| 20260905160109 | 21 | 198 | 0.0 | 16.1 | 0.00 | 0.61 | 0.00 | 54 | 1022.8 |
| 20260905154545 | 21 | 178 | 0.0 | 11.3 | 0.00 | 0.61 | 0.00 | 54 | 1022.8 |
| 20260905153039 | 21 | 198 | 0.0 | 0.0 | 0.00 | 0.61 | 0.00 | 55 | 1022.5 |
| 20260905151538 | 21 | 198 | 0.0 | 19.3 | 0.00 | 0.61 | 0.00 | 55 | 1022.4 |
| 20260905150036 | 21 | 204 | 0.0 | 0.0 | 0.00 | 0.61 | 0.00 | 59 | 1022.3 |
| 20260905144534 | 21 | 197 | 0.0 | 0.0 | 0.00 | 0.61 | 0.00 | 60 | 1022.2 |
| 20260905143034 | 21 | 209 | 0.0 | 17.7 | 0.00 | 0.61 | 0.00 | 57 | 1022.3 |
| 20260905141540 | 21 | 197 | 0.0 | 0.0 | 0.00 | 0.61 | 0.00 | 57 | 1022.2 |
| 20260905140031 | 20 | 198 | 0.0 | 0.0 | 0.00 | 0.61 | 0.00 | 60 | 1022.2 |
| 20260905134535 | 20 | 184 | 0.0 | 19.3 | 0.00 | 0.61 | 0.00 | 58 | 1022.4 |
| 20260905133028 | 21 | 217 | 0.0 | 0.0 | 0.00 | 0.61 | 0.00 | 58 | 1022.1 |
| 20260905131526 | 21 | 196 | 0.0 | 0.0 | 0.00 | 0.61 | 0.00 | 58 | 1022.1 |
| 20260905130026 | 21 | 188 | 0.0 | 0.0 | 0.00 | 0.61 | 0.00 | 58 | 1022.0 |
| 20260905124536 | 21 | 184 | 0.0 | 3.2 | 0.00 | 0.61 | 0.00 | 58 | 1022.0 |
| 20260905123020 | 20 | 197 | 0.0 | 14.5 | 0.00 | 0.61 | 0.00 | 62 | 1021.9 |
| 20260905121517 | 20 | 195 | 0.0 | 12.9 | 0.00 | 0.61 | 0.00 | 61 | 1021.8 |
| 20260905120016 | 20 | 196 | 0.0 | 12.9 | 0.00 | 0.61 | 0.00 | 63 | 1021.7 |
| 20260905114515 | 20 | 219 | 0.0 | 0.0 | 0.00 | 0.61 | 0.00 | 63 | 1021.6 |
| 20260905113014 | 20 | 190 | 0.0 | 16.1 | 0.00 | 0.61 | 0.00 | 63 | 1021.6 |
| 20260905111513 | 20 | 202 | 0.0 | 16.1 | 0.00 | 0.61 | 0.00 | 64 | 1021.6 |
| 20260905110011 | 19 | 215 | 0.0 | 0.0 | 0.00 | 0.61 | 0.00 | 66 | 1021.7 |
| 20260905104509 | 18 | 202 | 0.0 | 0.0 | 0.00 | 0.61 | 0.00 | 68 | 1021.6 |
| 20260905103017 | 19 | 194 | 0.0 | 0.0 | 0.00 | 0.61 | 0.00 | 65 | 1021.5 |
| 20260905101505 | 19 | 189 | 0.0 | 0.0 | 0.00 | 0.61 | 0.00 | 68 | 1021.5 |
| 20260905100002 | 19 | 192 | 0.0 | 16.1 | 0.00 | 0.61 | 0.00 | 70 | 1021.4 |
| 20260905094559 | 18 | 196 | 0.0 | 0.0 | 0.00 | 0.61 | 0.00 | 71 | 1021.3 |
| 20260905093057 | 18 | 205 | 0.0 | 14.5 | 0.00 | 0.61 | 0.00 | 74 | 1021.3 |
| 20260905091617 | 17 | 198 | 0.0 | 0.0 | 0.00 | 0.61 | 0.00 | 76 | 1021.1 |
| 20260905090056 | -17 | 0.0 | 0.0 | 0.00 | 0.61 | 0.00 | 1020.9 | ||
| 20260905084542 | -17 | 0.0 | 0.0 | 0.00 | 0.61 | 0.00 | 1020.8 | ||
| 20260905083037 | -17 | 0.0 | 0.0 | 0.00 | 0.61 | 0.00 | 1020.7 | ||
| 20260905081533 | -17 | 0.0 | 0.0 | 0.00 | 0.61 | 0.00 | 1020.6 | ||
| 20260905080036 | -17 | 0.0 | 0.0 | 0.00 | 0.61 | 0.00 | 1020.4 | ||
| 20260905074524 | -17 | 0.0 | 0.0 | 0.00 | 0.61 | 0.00 | 1020.2 |